Time,TemperatureF,DewpointF,PressureIn,WindDirection,WindDirectionDegrees,WindSpeedMPH,WindSpeedGustMPH,Humidity,HourlyPrecipIn,Conditions,Clouds,dailyrainin,SoftwareType,DateUTC
2013-10-12 00:09:00,65.2,61.9,29.98,WNW,290,0.0,0.0,89,0.00,,,0.00,Weather View 32 v70,2013-10-12 04:09:00,
2013-10-12 00:19:00,65.4,62.1,29.98,WNW,290,0.0,0.0,89,0.00,,,0.00,Weather View 32 v70,2013-10-12 04:19:00,
2013-10-12 00:21:00,65.4,62.1,29.98,WNW,290,0.0,0.0,89,0.00,,,0.00,Weather View 32 v70,2013-10-12 04:21:00,
2013-10-12 00:29:00,65.5,62.2,29.98,WNW,290,0.0,0.0,89,0.00,,,0.00,Weather View 32 v70,2013-10-12 04:29:00,
2013-10-12 00:39:00,65.8,62.5,29.98,WNW,290,0.0,0.0,89,0.00,,,0.00,Weather View 32 v70,2013-10-12 04:39:00,
2013-10-12 00:49:00,65.5,62.2,29.98,WNW,290,0.0,1.0,89,0.00,,,0.00,Weather View 32 v70,2013-10-12 04:49:00,
2013-10-12 00:59:00,65.2,61.9,29.97,WNW,290,0.0,1.0,89,0.00,,,0.00,Weather View 32 v70,2013-10-12 04:59:00,
2013-10-12 01:09:00,65.2,62.2,29.97,WNW,290,0.0,1.0,90,0.00,,,0.00,Weather View 32 v70,2013-10-12 05:09:00,
2013-10-12 01:19:00,65.8,62.8,29.97,WNW,290,0.0,1.0,90,0.00,,,0.00,Weather View 32 v70,2013-10-12 05:19:00,
2013-10-12 01:21:00,65.8,62.8,29.97,WNW,290,0.0,1.0,90,0.00,,,0.00,Weather View 32 v70,2013-10-12 05:21:00,
2013-10-12 01:29:00,66.4,63.0,29.97,WNW,290,0.0,1.0,89,0.00,,,0.00,Weather View 32 v70,2013-10-12 05:29:00,
2013-10-12 01:39:00,67.9,65.5,29.98,SSW,192,0.0,2.0,92,0.00,,,0.00,Weather View 32 v70,2013-10-12 05:39:00,
2013-10-12 01:49:00,69.3,65.9,29.98,South,176,0.0,2.0,89,0.00,,,0.00,Weather View 32 v70,2013-10-12 05:49:00,
2013-10-12 01:59:00,69.3,65.9,29.97,South,171,0.0,2.0,89,0.00,,,0.00,Weather View 32 v70,2013-10-12 05:59:00,
2013-10-12 02:09:00,68.7,65.3,29.97,South,171,0.0,2.0,89,0.00,,,0.00,Weather View 32 v70,2013-10-12 06:09:00,
2013-10-12 02:19:00,67.7,64.6,29.97,South,171,0.0,2.0,90,0.00,,,0.00,Weather View 32 v70,2013-10-12 06:19:00,
2013-10-12 02:22:00,67.7,64.6,29.97,South,171,0.0,2.0,90,0.00,,,0.00,Weather View 32 v70,2013-10-12 06:22:00,
2013-10-12 02:29:00,67.7,64.6,29.97,South,171,0.0,2.0,90,0.00,,,0.00,Weather View 32 v70,2013-10-12 06:29:00,
2013-10-12 02:39:00,67.2,63.8,29.97,South,171,0.0,1.0,89,0.00,,,0.00,Weather View 32 v70,2013-10-12 06:39:00,
2013-10-12 02:49:00,66.7,63.7,29.97,South,171,0.0,1.0,90,0.00,,,0.00,Weather View 32 v70,2013-10-12 06:49:00,
2013-10-12 02:59:00,66.6,63.2,29.97,South,171,0.0,0.0,89,0.00,,,0.00,Weather View 32 v70,2013-10-12 06:59:00,
2013-10-12 03:09:00,66.1,62.8,29.97,South,171,1.0,1.0,89,0.00,,,0.00,Weather View 32 v70,2013-10-12 07:09:00,
2013-10-12 03:19:00,66.0,62.7,29.97,South,171,0.0,1.0,89,0.00,,,0.00,Weather View 32 v70,2013-10-12 07:19:00,
2013-10-12 03:22:00,66.0,62.7,29.97,South,171,0.0,1.0,89,0.00,,,0.00,Weather View 32 v70,2013-10-12 07:22:00,
2013-10-12 03:29:00,65.9,62.6,29.97,South,171,0.0,1.0,89,0.00,,,0.00,Weather View 32 v70,2013-10-12 07:29:00,
2013-10-12 03:39:00,65.8,62.5,29.97,South,171,0.0,1.0,89,0.00,,,0.00,Weather View 32 v70,2013-10-12 07:39:00,
2013-10-12 03:49:00,65.7,62.7,29.96,South,171,0.0,1.0,90,0.00,,,0.00,Weather View 32 v70,2013-10-12 07:49:00,
2013-10-12 03:59:00,65.3,62.3,29.97,South,171,0.0,1.0,90,0.00,,,0.00,Weather View 32 v70,2013-10-12 07:59:00,
2013-10-12 04:09:00,65.3,62.6,29.97,South,171,0.0,1.0,91,0.00,,,0.00,Weather View 32 v70,2013-10-12 08:09:00,
2013-10-12 04:19:00,65.6,62.9,29.97,South,171,0.0,1.0,91,0.00,,,0.00,Weather View 32 v70,2013-10-12 08:19:00,
2013-10-12 04:23:00,65.6,62.9,29.97,South,171,0.0,1.0,91,0.00,,,0.00,Weather View 32 v70,2013-10-12 08:23:00,
2013-10-12 04:29:00,65.8,62.8,29.97,South,171,0.0,1.0,90,0.00,,,0.00,Weather View 32 v70,2013-10-12 08:29:00,
2013-10-12 04:39:00,65.7,62.7,29.96,South,171,0.0,1.0,90,0.00,,,0.00,Weather View 32 v70,2013-10-12 08:39:00,
2013-10-12 04:49:00,65.7,62.7,29.96,South,171,0.0,1.0,90,0.00,,,0.00,Weather View 32 v70,2013-10-12 08:49:00,
2013-10-12 04:59:00,65.7,63.0,29.97,South,171,0.0,0.0,91,0.00,,,0.00,Weather View 32 v70,2013-10-12 08:59:00,
2013-10-12 05:09:00,65.8,63.1,29.97,South,171,0.0,0.0,91,0.00,,,0.00,Weather View 32 v70,2013-10-12 09:09:00,
2013-10-12 05:19:00,65.7,63.0,29.97,South,171,0.0,0.0,91,0.00,,,0.00,Weather View 32 v70,2013-10-12 09:19:00,
2013-10-12 05:23:00,65.7,63.0,29.97,South,171,0.0,0.0,91,0.00,,,0.00,Weather View 32 v70,2013-10-12 09:23:00,
2013-10-12 05:29:00,65.6,62.9,29.97,South,171,0.0,0.0,91,0.00,,,0.00,Weather View 32 v70,2013-10-12 09:29:00,
2013-10-12 05:39:00,65.6,62.9,29.98,South,171,0.0,0.0,91,0.00,,,0.00,Weather View 32 v70,2013-10-12 09:39:00,
2013-10-12 05:49:00,65.6,62.9,29.98,South,171,0.0,0.0,91,0.00,,,0.00,Weather View 32 v70,2013-10-12 09:49:00,
2013-10-12 05:59:00,65.9,63.5,29.98,South,171,0.0,0.0,92,0.00,,,0.00,Weather View 32 v70,2013-10-12 09:59:00,
2013-10-12 06:09:00,66.1,63.4,29.98,South,171,0.0,0.0,91,0.00,,,0.00,Weather View 32 v70,2013-10-12 10:09:00,
2013-10-12 06:19:00,66.0,63.3,29.98,South,171,0.0,0.0,91,0.00,,,0.00,Weather View 32 v70,2013-10-12 10:19:00,
2013-10-12 06:24:00,66.0,63.3,29.98,South,171,0.0,0.0,91,0.00,,,0.00,Weather View 32 v70,2013-10-12 10:24:00,
2013-10-12 06:29:00,65.6,62.9,29.98,South,171,0.0,0.0,91,0.00,,,0.00,Weather View 32 v70,2013-10-12 10:29:00,
2013-10-12 06:39:00,65.2,62.8,29.99,South,171,0.0,0.0,92,0.00,,,0.00,Weather View 32 v70,2013-10-12 10:39:00,
2013-10-12 06:49:00,64.9,62.5,29.99,South,171,0.0,0.0,92,0.00,,,0.00,Weather View 32 v70,2013-10-12 10:49:00,
2013-10-12 06:59:00,64.6,62.5,29.99,South,178,0.0,0.0,93,0.00,,,0.00,Weather View 32 v70,2013-10-12 10:59:00,
2013-10-12 07:09:00,64.5,62.4,30.00,South,180,0.0,0.0,93,0.00,,,0.00,Weather View 32 v70,2013-10-12 11:09:00,
2013-10-12 07:19:00,64.5,62.4,30.00,South,185,0.0,0.0,93,0.00,,,0.00,Weather View 32 v70,2013-10-12 11:19:00,
2013-10-12 07:24:00,64.5,62.4,30.00,South,185,0.0,0.0,93,0.00,,,0.00,Weather View 32 v70,2013-10-12 11:24:00,
2013-10-12 07:29:00,64.8,62.7,30.00,SSW,193,0.0,0.0,93,0.00,,,0.00,Weather View 32 v70,2013-10-12 11:29:00,
2013-10-12 07:39:00,64.8,62.7,30.00,SSW,193,0.0,0.0,93,0.00,,,0.00,Weather View 32 v70,2013-10-12 11:39:00,
2013-10-12 07:49:00,65.4,63.3,30.01,SSW,193,0.0,0.0,93,0.00,,,0.00,Weather View 32 v70,2013-10-12 11:49:00,
2013-10-12 07:59:00,65.5,63.4,30.01,SSW,193,0.0,0.0,93,0.00,,,0.00,Weather View 32 v70,2013-10-12 11:59:00,
2013-10-12 08:09:00,65.8,63.7,30.01,SSW,193,0.0,0.0,93,0.00,,,0.00,Weather View 32 v70,2013-10-12 12:09:00,
2013-10-12 08:20:00,66.0,63.9,30.02,SSW,193,0.0,0.0,93,0.00,,,0.00,Weather View 32 v70,2013-10-12 12:20:00,
2013-10-12 08:25:00,66.0,63.9,30.02,SSW,193,0.0,0.0,93,0.00,,,0.00,Weather View 32 v70,2013-10-12 12:25:00,
2013-10-12 08:39:00,67.3,64.6,30.02,SSW,193,0.0,0.0,91,0.00,,,0.00,Weather View 32 v70,2013-10-12 12:39:00,
2013-10-12 08:49:00,68.3,65.2,30.02,SSW,193,0.0,1.0,90,0.00,,,0.00,Weather View 32 v70,2013-10-12 12:49:00,
2013-10-12 08:59:00,68.7,65.3,30.02,WSW,250,0.0,1.0,89,0.00,,,0.00,Weather View 32 v70,2013-10-12 12:59:00,
2013-10-12 09:09:00,68.8,65.1,30.03,WSW,253,0.0,3.0,88,0.00,,,0.00,Weather View 32 v70,2013-10-12 13:09:00,
2013-10-12 09:19:00,69.3,65.9,30.03,WSW,253,0.0,3.0,89,0.00,,,0.00,Weather View 32 v70,2013-10-12 13:19:00,
2013-10-12 09:26:00,69.3,65.9,30.03,WSW,253,0.0,3.0,89,0.00,,,0.00,Weather View 32 v70,2013-10-12 13:26:00,
2013-10-12 09:29:00,70.0,65.9,30.03,WSW,254,0.0,3.0,87,0.00,,,0.00,Weather View 32 v70,2013-10-12 13:29:00,
2013-10-12 09:39:00,71.6,66.5,30.03,WSW,253,0.0,3.0,84,0.00,,,0.00,Weather View 32 v70,2013-10-12 13:39:00,
2013-10-12 09:49:00,72.4,66.6,30.03,WSW,253,0.0,3.0,82,0.00,,,0.00,Weather View 32 v70,2013-10-12 13:49:00,
2013-10-12 09:59:00,73.0,66.4,30.03,WSW,253,0.0,3.0,80,0.00,,,0.00,Weather View 32 v70,2013-10-12 13:59:00,
2013-10-12 10:10:00,73.1,66.2,30.04,WSW,254,0.0,1.0,79,0.00,,,0.00,Weather View 32 v70,2013-10-12 14:10:00,
2013-10-12 10:20:00,73.3,66.7,30.04,WSW,254,0.0,1.0,80,0.00,,,0.00,Weather View 32 v70,2013-10-12 14:20:00,
2013-10-12 10:27:00,73.3,66.7,30.04,WSW,254,0.0,1.0,80,0.00,,,0.00,Weather View 32 v70,2013-10-12 14:27:00,
2013-10-12 10:30:00,74.2,66.9,30.03,WSW,254,0.0,1.0,78,0.00,,,0.00,Weather View 32 v70,2013-10-12 14:30:00,
2013-10-12 10:40:00,74.9,67.5,30.03,West,263,0.0,3.0,78,0.00,,,0.00,Weather View 32 v70,2013-10-12 14:40:00,
2013-10-12 10:49:00,76.0,68.6,30.04,West,263,0.0,3.0,78,0.00,,,0.00,Weather View 32 v70,2013-10-12 14:49:00,
2013-10-12 10:50:00,76.0,68.6,30.04,West,263,0.0,3.0,78,0.00,,,0.00,Weather View 32 v70,2013-10-12 14:50:00,
2013-10-12 10:59:00,76.7,67.8,30.03,NNE,17,0.0,3.0,74,0.00,,,0.00,Weather View 32 v70,2013-10-12 14:59:00,
2013-10-12 11:09:00,77.4,67.2,30.03,ENE,60,0.0,3.0,71,0.00,,,0.00,Weather View 32 v70,2013-10-12 15:09:00,
2013-10-12 11:19:00,78.1,66.6,30.03,NNE,13,0.0,3.0,68,0.00,,,0.00,Weather View 32 v70,2013-10-12 15:19:00,
2013-10-12 11:27:00,78.1,66.6,30.03,NNE,13,0.0,3.0,68,0.00,,,0.00,Weather View 32 v70,2013-10-12 15:27:00,
2013-10-12 11:29:00,78.2,66.7,30.03,SE,142,0.0,3.0,68,0.00,,,0.00,Weather View 32 v70,2013-10-12 15:29:00,
2013-10-12 11:39:00,78.6,66.7,30.03,SE,128,0.0,3.0,67,0.00,,,0.00,Weather View 32 v70,2013-10-12 15:39:00,
2013-10-12 11:49:00,80.2,65.5,30.03,NE,37,3.0,7.0,61,0.00,,,0.00,Weather View 32 v70,2013-10-12 15:49:00,
2013-10-12 11:59:00,80.2,63.5,30.02,NE,36,0.0,7.0,57,0.00,,,0.00,Weather View 32 v70,2013-10-12 15:59:00,
2013-10-12 12:09:00,79.4,64.7,30.02,NE,35,0.0,7.0,61,0.00,,,0.00,Weather View 32 v70,2013-10-12 16:09:00,
2013-10-12 12:19:00,79.7,64.5,30.02,NE,35,0.0,7.0,60,0.00,,,0.00,Weather View 32 v70,2013-10-12 16:19:00,
2013-10-12 12:28:00,79.7,64.5,30.02,NE,35,0.0,7.0,60,0.00,,,0.00,Weather View 32 v70,2013-10-12 16:28:00,
2013-10-12 12:29:00,80.0,65.3,30.02,NNE,16,0.0,7.0,61,0.00,,,0.00,Weather View 32 v70,2013-10-12 16:29:00,
2013-10-12 12:39:00,79.8,64.1,30.02,NNE,21,2.0,7.0,59,0.00,,,0.00,Weather View 32 v70,2013-10-12 16:39:00,
2013-10-12 12:49:00,80.5,61.2,30.02,NE,46,0.0,6.0,52,0.00,,,0.00,Weather View 32 v70,2013-10-12 16:49:00,
2013-10-12 12:59:00,81.2,62.4,30.01,WNW,284,0.0,6.0,53,0.00,,,0.00,Weather View 32 v70,2013-10-12 16:59:00,
2013-10-12 13:09:00,82.7,60.3,30.01,WSW,238,1.0,7.0,47,0.00,,,0.00,Weather View 32 v70,2013-10-12 17:09:00,
2013-10-12 13:20:00,82.0,62.6,30.00,WNW,293,2.0,7.0,52,0.00,,,0.00,Weather View 32 v70,2013-10-12 17:20:00,
2013-10-12 13:29:00,82.0,62.6,30.00,WNW,293,2.0,7.0,52,0.00,,,0.00,Weather View 32 v70,2013-10-12 17:29:00,
2013-10-12 13:39:00,81.4,62.6,30.00,WSW,240,0.0,7.0,53,0.00,,,0.00,Weather View 32 v70,2013-10-12 17:39:00,
2013-10-12 13:49:00,82.5,62.5,29.99,West,259,4.0,7.0,51,0.00,,,0.00,Weather View 32 v70,2013-10-12 17:49:00,
2013-10-12 13:59:00,82.2,61.6,29.99,NNE,14,1.0,7.0,50,0.00,,,0.00,Weather View 32 v70,2013-10-12 17:59:00,
2013-10-12 14:09:00,82.9,60.5,29.98,WNW,298,1.0,7.0,47,0.00,,,0.00,Weather View 32 v70,2013-10-12 18:09:00,
2013-10-12 14:19:00,81.8,63.5,29.98,West,276,0.0,7.0,54,0.00,,,0.00,Weather View 32 v70,2013-10-12 18:19:00,
2013-10-12 14:30:00,83.7,61.9,29.97,WNW,294,1.0,7.0,48,0.00,,,0.00,Weather View 32 v70,2013-10-12 18:30:00,
2013-10-12 14:39:00,83.7,62.4,29.97,West,280,3.0,7.0,49,0.00,,,0.00,Weather View 32 v70,2013-10-12 18:39:00,
2013-10-12 14:49:00,83.9,61.4,29.97,SSW,201,2.0,10.0,47,0.00,,,0.00,Weather View 32 v70,2013-10-12 18:49:00,
2013-10-12 14:59:00,83.3,62.1,29.97,SW,232,2.0,10.0,49,0.00,,,0.00,Weather View 32 v70,2013-10-12 18:59:00,
2013-10-12 15:09:00,83.1,61.3,29.97,SW,229,1.0,10.0,48,0.00,,,0.00,Weather View 32 v70,2013-10-12 19:09:00,
2013-10-12 15:19:00,83.9,62.0,29.97,West,280,0.0,10.0,48,0.00,,,0.00,Weather View 32 v70,2013-10-12 19:19:00,
2013-10-12 15:29:00,83.6,61.2,29.97,West,265,3.0,10.0,47,0.00,,,0.00,Weather View 32 v70,2013-10-12 19:29:00,
2013-10-12 15:30:00,83.6,61.2,29.97,West,265,3.0,10.0,47,0.00,,,0.00,Weather View 32 v70,2013-10-12 19:30:00,
2013-10-12 15:39:00,82.2,63.3,29.96,NW,323,0.0,10.0,53,0.00,,,0.00,Weather View 32 v70,2013-10-12 19:39:00,
2013-10-12 15:49:00,81.8,62.9,29.96,West,268,1.0,9.0,53,0.00,,,0.00,Weather View 32 v70,2013-10-12 19:49:00,
2013-10-12 15:59:00,83.1,60.7,29.96,SW,216,2.0,7.0,47,0.00,,,0.00,Weather View 32 v70,2013-10-12 19:59:00,
2013-10-12 16:09:00,83.3,60.9,29.96,WNW,291,0.0,7.0,47,0.00,,,0.00,Weather View 32 v70,2013-10-12 20:09:00,
2013-10-12 16:19:00,83.2,63.1,29.96,NE,34,0.0,7.0,51,0.00,,,0.00,Weather View 32 v70,2013-10-12 20:19:00,
2013-10-12 16:29:00,83.1,61.9,29.96,North,360,1.0,7.0,49,0.00,,,0.00,Weather View 32 v70,2013-10-12 20:29:00,
2013-10-12 16:31:00,83.1,61.9,29.96,North,360,1.0,7.0,49,0.00,,,0.00,Weather View 32 v70,2013-10-12 20:31:00,
2013-10-12 16:39:00,83.1,62.5,29.96,WNW,286,0.0,7.0,50,0.00,,,0.00,Weather View 32 v70,2013-10-12 20:39:00,
2013-10-12 16:49:00,82.9,62.3,29.96,North,360,1.0,7.0,50,0.00,,,0.00,Weather View 32 v70,2013-10-12 20:49:00,
2013-10-12 16:59:00,82.0,62.6,29.96,North,355,1.0,7.0,52,0.00,,,0.00,Weather View 32 v70,2013-10-12 20:59:00,
2013-10-12 17:09:00,82.0,63.1,29.96,North,5,4.0,6.0,53,0.00,,,0.00,Weather View 32 v70,2013-10-12 21:09:00,
2013-10-12 17:19:00,81.8,62.4,29.96,NNE,19,0.0,6.0,52,0.00,,,0.00,Weather View 32 v70,2013-10-12 21:19:00,
2013-10-12 17:29:00,81.4,62.6,29.96,North,355,0.0,6.0,53,0.00,,,0.00,Weather View 32 v70,2013-10-12 21:29:00,
2013-10-12 17:31:00,81.4,62.6,29.96,North,355,0.0,6.0,53,0.00,,,0.00,Weather View 32 v70,2013-10-12 21:31:00,
2013-10-12 17:39:00,81.3,63.0,29.96,NW,315,0.0,5.0,54,0.00,,,0.00,Weather View 32 v70,2013-10-12 21:39:00,
2013-10-12 17:49:00,80.7,63.0,29.97,NNE,12,0.0,5.0,55,0.00,,,0.00,Weather View 32 v70,2013-10-12 21:49:00,
2013-10-12 17:59:00,80.1,63.9,29.97,NNE,12,0.0,5.0,58,0.00,,,0.00,Weather View 32 v70,2013-10-12 21:59:00,
2013-10-12 18:10:00,78.8,64.6,29.97,NNE,12,0.0,5.0,62,0.00,,,0.00,Weather View 32 v70,2013-10-12 22:10:00,
2013-10-12 18:19:00,77.9,65.1,29.98,NNE,12,0.0,5.0,65,0.00,,,0.00,Weather View 32 v70,2013-10-12 22:19:00,
2013-10-12 18:29:00,77.1,66.1,29.98,NNE,12,0.0,4.0,69,0.00,,,0.00,Weather View 32 v70,2013-10-12 22:29:00,
2013-10-12 18:39:00,76.2,66.1,29.98,NNE,12,0.0,4.0,71,0.00,,,0.00,Weather View 32 v70,2013-10-12 22:39:00,
2013-10-12 18:49:00,75.7,65.6,29.98,NNE,12,0.0,2.0,71,0.00,,,0.00,Weather View 32 v70,2013-10-12 22:49:00,
2013-10-12 18:59:00,75.0,66.5,29.98,NNE,12,0.0,0.0,75,0.00,,,0.00,Weather View 32 v70,2013-10-12 22:59:00,
2013-10-12 19:09:00,73.8,66.1,29.98,NNE,12,0.0,0.0,77,0.00,,,0.00,Weather View 32 v70,2013-10-12 23:09:00,
2013-10-12 19:19:00,72.7,66.1,29.98,NNE,12,0.0,1.0,80,0.00,,,0.00,Weather View 32 v70,2013-10-12 23:19:00,
2013-10-12 19:29:00,71.9,66.8,29.99,NNE,12,0.0,1.0,84,0.00,,,0.00,Weather View 32 v70,2013-10-12 23:29:00,
2013-10-12 19:32:00,71.9,66.8,29.99,NNE,12,0.0,1.0,84,0.00,,,0.00,Weather View 32 v70,2013-10-12 23:32:00,
2013-10-12 19:39:00,71.0,66.2,29.99,NNE,12,0.0,1.0,85,0.00,,,0.00,Weather View 32 v70,2013-10-12 23:39:00,
2013-10-12 19:49:00,70.4,65.7,29.99,NNE,12,0.0,1.0,85,0.00,,,0.00,Weather View 32 v70,2013-10-12 23:49:00,
2013-10-12 19:59:00,69.9,65.8,29.99,NNE,12,0.0,1.0,87,0.00,,,0.00,Weather View 32 v70,2013-10-12 23:59:00,
2013-10-12 20:09:00,69.4,65.7,30.00,NNE,12,0.0,1.0,88,0.00,,,0.00,Weather View 32 v70,2013-10-13 00:09:00,
2013-10-12 20:19:00,69.1,65.7,30.00,NNE,12,0.0,1.0,89,0.00,,,0.00,Weather View 32 v70,2013-10-13 00:19:00,
2013-10-12 20:29:00,68.6,65.2,30.00,NNE,12,0.0,0.0,89,0.00,,,0.00,Weather View 32 v70,2013-10-13 00:29:00,
2013-10-12 20:33:00,68.6,65.2,30.00,NNE,12,0.0,0.0,89,0.00,,,0.00,Weather View 32 v70,2013-10-13 00:33:00,
2013-10-12 20:39:00,68.2,64.8,30.00,NNE,12,0.0,0.0,89,0.00,,,0.00,Weather View 32 v70,2013-10-13 00:39:00,
2013-10-12 20:49:00,68.2,65.1,30.01,NE,45,0.0,3.0,90,0.00,,,0.00,Weather View 32 v70,2013-10-13 00:49:00,
2013-10-12 20:59:00,68.8,65.1,30.01,NE,45,0.0,3.0,88,0.00,,,0.00,Weather View 32 v70,2013-10-13 00:59:00,
2013-10-12 21:09:00,68.9,64.9,30.02,NE,45,0.0,3.0,87,0.00,,,0.00,Weather View 32 v70,2013-10-13 01:09:00,
2013-10-12 21:19:00,68.0,64.0,30.02,NE,45,0.0,3.0,87,0.00,,,0.00,Weather View 32 v70,2013-10-13 01:19:00,
2013-10-12 21:29:00,67.4,63.4,30.02,NE,45,0.0,3.0,87,0.00,,,0.00,Weather View 32 v70,2013-10-13 01:29:00,
2013-10-12 21:33:00,67.4,63.4,30.02,NE,45,0.0,3.0,87,0.00,,,0.00,Weather View 32 v70,2013-10-13 01:33:00,
2013-10-12 21:39:00,66.9,63.2,30.03,NE,45,0.0,3.0,88,0.00,,,0.00,Weather View 32 v70,2013-10-13 01:39:00,
2013-10-12 21:49:00,66.7,63.0,30.03,NE,45,0.0,0.0,88,0.00,,,0.00,Weather View 32 v70,2013-10-13 01:49:00,
2013-10-12 21:59:00,66.5,62.8,30.03,NE,45,0.0,0.0,88,0.00,,,0.00,Weather View 32 v70,2013-10-13 01:59:00,
2013-10-12 22:09:00,65.6,62.3,30.03,NE,45,0.0,0.0,89,0.00,,,0.00,Weather View 32 v70,2013-10-13 02:09:00,
2013-10-12 22:19:00,65.2,62.2,30.04,NE,45,0.0,0.0,90,0.00,,,0.00,Weather View 32 v70,2013-10-13 02:19:00,
2013-10-12 22:29:00,65.2,62.2,30.04,NE,45,0.0,1.0,90,0.00,,,0.00,Weather View 32 v70,2013-10-13 02:29:00,
2013-10-12 22:34:00,65.2,62.2,30.04,NE,45,0.0,1.0,90,0.00,,,0.00,Weather View 32 v70,2013-10-13 02:34:00,
2013-10-12 22:39:00,64.8,61.8,30.04,NNE,24,1.0,2.0,90,0.00,,,0.00,Weather View 32 v70,2013-10-13 02:39:00,
2013-10-12 22:49:00,64.4,61.7,30.04,NNE,24,0.0,2.0,91,0.00,,,0.00,Weather View 32 v70,2013-10-13 02:49:00,
2013-10-12 22:59:00,64.3,61.6,30.04,NNE,24,0.0,2.0,91,0.00,,,0.00,Weather View 32 v70,2013-10-13 02:59:00,
2013-10-12 23:10:00,63.9,61.2,30.04,NNE,24,0.0,2.0,91,0.00,,,0.00,Weather View 32 v70,2013-10-13 03:10:00,
2013-10-12 23:19:00,63.9,61.5,30.04,NNE,24,0.0,2.0,92,0.00,,,0.00,Weather View 32 v70,2013-10-13 03:19:00,
2013-10-12 23:29:00,64.1,61.7,30.03,NNE,24,0.0,2.0,92,0.00,,,0.00,Weather View 32 v70,2013-10-13 03:29:00,
2013-10-12 23:34:00,64.1,61.7,30.03,NNE,24,0.0,2.0,92,0.00,,,0.00,Weather View 32 v70,2013-10-13 03:34:00,
2013-10-12 23:39:00,64.1,61.7,30.03,NNE,24,0.0,2.0,92,0.00,,,0.00,Weather View 32 v70,2013-10-13 03:39:00,
2013-10-12 23:50:00,64.1,62.0,30.04,NNE,24,0.0,0.0,93,0.00,,,0.00,Weather View 32 v70,2013-10-13 03:50:00,
2013-10-12 23:59:00,63.2,60.8,30.03,NNE,24,1.0,1.0,92,0.00,,,0.00,Weather View 32 v70,2013-10-13 03:59:00,